[[{"header":{"parameterUnit":"m.s-1","parameterCategory":1,"la1":30.2991,"la2":30.254,"lo1":-89.0895,"lo2":-89.0444,"dy":0.0017,"dx":0.0017,"nx":28,"ny":28,"refTime":"2025-09-09T09:00:00:Z","depth":0,"parameterNumber":2,"parameterNumberName":"U-component_of_WINDS"},"data":[0,0,0,0,0,0,0,0,0,0,0,0,0,0,0,0,0,0,0,0,0,0,0,0,0,0,0,0,0,0,0,0,0,0,0,0,0,0,0,0,0,0,0,0,0,0,0,0,0,0,0,0,0,0,0,0,0,0,-3.0479,-3.0478,0,-3.0404,-3.0404,-3.0403,-3.0291,-3.0289,-3.0287,-3.0285,-3.021,-3.021,-3.021,0,0,0,0,0,0,0,0,0,0,0,0,0,-3.0526,-3.0526,-3.0479,-3.0478,-3.0477,-3.0405,-3.0404,-3.0403,-3.0291,-3.0289,-3.0287,-3.0284,-3.021,-3.021,-3.021,0,0,0,0,0,0,0,0,0,0,0,0,0,-3.0484,-3.0526,-3.0479,-3.0413,-3.0406,-3.0405,-3.0404,-3.0402,-3.0292,-3.0289,-3.0286,-3.0283,-3.021,-3.021,-3.021,-3.0268,0,0,-3.0209,-3.0209,0,0,0,0,0,0,0,0,-3.0487,-3.0483,-3.0423,-3.0417,-3.041,-3.0354,-3.0393,-3.0357,-3.0293,-3.0335,-3.0285,-3.0282,-3.0261,-3.0256,-3.0249,-3.0264,-3.0261,-3.0209,-3.0209,-3.0209,-3.0209,0,0,0,0,0,0,0,-3.049,-3.0485,-3.0449,-3.0423,-3.0414,-3.0387,-3.0378,-3.0385,-3.0315,-3.0331,-3.0323,-3.0316,-3.0256,-3.0249,-3.0246,-3.026,-3.0209,-3.0209,-3.0209,-3.0209,-3.0323,-3.0326,0,0,0,0,0,0,-3.0502,-3.0488,-3.0452,-3.0447,-3.0442,-3.0389,-3.0379,-3.0375,-3.0315,-3.0303,-3.0318,-3.0311,-3.0251,-3.0246,-3.0243,-3.0309,-3.0209,-3.0209,-3.0209,-3.032,-3.0324,-3.0327,0,0,0,0,0,0,-3.0504,-3.05,-3.0455,-3.0465,-3.0458,-3.0391,-3.0388,-3.0375,-3.0368,-3.0305,-3.0292,-3.0324,-3.0248,-3.0243,-3.0263,-3.0305,-3.0209,-3.0208,-3.0316,-3.0321,-3.0325,-3.0442,0,0,0,0,0,0,-3.0506,-3.0501,-3.0522,-3.0467,-3.0457,-3.0476,-3.039,-3.0376,-3.0367,-3.0357,-3.0307,-3.0296,-3.0246,-3.0264,-3.0263,-3.0303,-3.0208,-3.0312,-3.0318,-3.0324,-3.0434,-3.045,-3.0463,0,0,0,0,0,-3.0508,-3.0557,-3.0524,-3.052,-3.0482,-3.0478,-3.0473,-3.0414,-3.0371,-3.0392,-3.0353,-3.0297,-3.03,-3.0267,-3.0265,-3.0306,-3.0309,-3.0316,-3.0323,-3.0427,-3.0447,-3.0463,0,0,0,0,0,0,-3.0619,-3.0549,-3.0511,-3.0543,-3.0518,-3.0459,-3.0484,-3.0436,-3.0422,-3.0413,-3.034,-3.033,-3.036,-3.0334,-3.0298,-3.036,-3.0297,-3.0304,-3.0376,-3.0394,-3.0409,-3.0415,-3.0208,0,0,0,0,0,-3.0647,-3.0649,-3.0588,-3.0623,-3.0612,-3.0551,-3.0547,-3.0504,-3.0474,-3.0463,-3.0424,-3.0399,-3.0394,-3.0392,-3.0384,-3.0429,-3.0418,-3.0456,-3.0471,-3.0483,-3.0491,-3.0516,-3.0533,-3.0351,-3.035,-3.035,0,0,-3.0705,-3.0667,-3.0673,-3.0645,-3.0619,-3.0625,-3.0542,-3.055,-3.0554,-3.0464,-3.0481,-3.0453,-3.0419,-3.0453,-3.0465,-3.0432,-3.0539,-3.0492,-3.0503,-3.0504,-3.0525,-3.0543,-3.0558,-3.0355,-3.0355,-3.0354,0,0,-3.0815,-3.0786,-3.0813,-3.079,-3.0754,-3.0713,-3.072,-3.0669,-3.0647,-3.0663,-3.0596,-3.06,-3.0592,-3.0572,-3.0561,-3.0666,-3.0616,-3.0665,-3.0743,-3.0769,-3.0783,-3.0796,-3.0836,-3.0851,-3.0672,-3.0673,-3.0673,0,-3.0893,-3.0898,-3.0833,-3.0847,-3.0837,-3.0756,-3.0785,-3.0765,-3.0728,-3.0724,-3.0687,-3.0678,-3.0649,-3.0679,-3.0705,-3.0697,-3.0705,-3.0671,-3.0786,-3.0798,-3.0809,-3.0847,-3.0862,-3.0679,-3.0678,-3.0678,-3.0677,0,-3.0996,-3.1001,-3.1027,-3.0995,-3.0988,-3.1009,-3.0949,-3.095,-3.0908,-3.0872,-3.0891,-3.0854,-3.0838,-3.0842,-3.08,-3.0866,-3.0847,-3.0799,-3.0734,-3.0834,-3.0868,-3.0882,-3.0688,-3.0686,-3.0684,-3.0683,0,0,-3.1174,-3.1107,-3.1118,-3.1103,-3.1058,-3.1061,-3.1079,-3.1064,-3.1068,-3.1045,-3.106,-3.1057,-3.1013,-3.1001,-3.0956,-3.0978,-3.1068,-3.0928,-3.0926,-3.0958,-3.1142,-3.1181,-3.1198,-3.1034,-3.1036,-3.1038,-3.1146,0,-3.1277,-3.1304,-3.1247,-3.1289,-3.1294,-3.1218,-3.1234,-3.1209,-3.1176,-3.1176,-3.1139,-3.114,-3.108,-3.1073,-3.1091,-3.1053,-3.1105,-3.1044,-3.105,-3.1051,-3.1063,-3.1215,-3.1255,-3.1359,-3.1159,-3.1161,-3.1162,0,-3.14,-3.1385,-3.1428,-3.1382,-3.1382,-3.1398,-3.1381,-3.1382,-3.1353,-3.1327,-3.1315,-3.1263,-3.128,-3.1216,-3.1239,-3.12,-3.1199,-3.1181,-3.1183,-3.1183,-3.1114,-3.1222,-3.139,-3.1407,-3.1182,-3.1181,-3.1179,0,-3.1529,-3.1519,-3.1544,-3.1533,-3.148,-3.1494,-3.1473,-3.144,-3.1436,-3.1421,-3.1418,-3.1406,-3.14,-3.1392,-3.134,-3.1298,-3.1371,-3.1302,-3.1352,-3.1354,-3.1372,-3.1372,-3.1545,-3.1368,-3.1368,-3.1367,-3.1367,0,-3.1651,-3.1681,-3.1602,-3.1617,-3.1649,-3.1584,-3.1618,-3.1589,-3.1561,-3.1571,-3.1504,-3.1515,-3.1443,-3.1447,-3.1406,-3.1433,-3.143,-3.1412,-3.1401,-3.1419,-3.1422,-3.1419,-3.1412,-3.1371,-3.137,-3.137,-3.1369,0,-3.1801,-3.1749,-3.1772,-3.172,-3.1708,-3.1734,-3.1691,-3.1704,-3.1667,-3.168,-3.168,-3.1622,-3.1623,-3.157,-3.156,-3.1532,-3.1579,-3.1553,-3.1589,-3.1582,-3.1636,-3.1633,-3.1815,-3.1837,-3.1644,-3.1646,-3.1647,0,-3.1884,-3.1905,-3.1856,-3.1858,-3.184,-3.1844,-3.1839,-3.1777,-3.1775,-3.1745,-3.1763,-3.1759,-3.1752,-3.1758,-3.1716,-3.1709,-3.1685,-3.1749,-3.1683,-3.1702,-3.1689,-3.169,-3.1693,-3.1763,-3.1766,-3.1768,-3.1769,0,-3.2037,-3.201,-3.2006,-3.1995,-3.1992,-3.1979,-3.1962,-3.1968,-3.19,-3.1902,-3.1902,-3.1897,-3.1888,-3.1886,-3.1871,-3.185,-3.18,-3.179,-3.1802,-3.1822,-3.1843,-3.1836,-3.163,-3.1787,-3.1785,-3.1784,-3.1783,-3.1782,-3.2157,-3.2174,-3.2143,-3.2142,-3.2123,-3.2109,-3.212,-3.2085,-3.2084,-3.2072,-3.2035,-3.2043,-3.2015,-3.1991,-3.1975,-3.1981,-3.1949,-3.1965,-3.197,-3.1976,-3.1988,-3.184,-3.1978,-3.1977,-3.1976,-3.1976,-3.1976,0,-3.2309,-3.2286,-3.2285,-3.2265,-3.2265,-3.2216,-3.2196,-3.2199,-3.2207,-3.2185,-3.2181,-3.2183,-3.2181,-3.214,-3.2133,-3.2147,-3.2124,-3.2147,-3.2147,-3.2144,-3.2015,-3.2006,-3.2166,-3.2166,-3.2166,-3.2166,-3.2166,-3.2166,-3.2388,-3.2415,-3.2386,-3.2403,-3.2379,-3.2386,-3.2379,-3.2367,-3.235,-3.2356,-3.2354,-3.2327,-3.2298,-3.229,-3.2287,-3.2275,-3.2277,-3.2309,-3.229,-3.2171,-3.2152,-3.2135,-3.2127,-3.2309,-3.2309,-3.2418,-3.2419,-3.242]},{"header":{"parameterUnit":"m.s-1","parameterCategory":1,"la1":30.2991,"la2":30.254,"lo1":-89.0895,"lo2":-89.0444,"dy":0.0017,"dx":0.0017,"nx":28,"ny":28,"refTime":"2025-09-09T09:00:00:Z","depth":0,"parameterNumber":3,"parameterNumberName":"V-component_of_WINDS"},"data":[0,0,0,0,0,0,0,0,0,0,0,0,0,0,0,0,0,0,0,0,0,0,0,0,0,0,0,0,0,0,0,0,0,0,0,0,0,0,0,0,0,0,0,0,0,0,0,0,0,0,0,0,0,0,0,0,0,0,1.6127,1.6127,0,1.6072,1.6072,1.6071,1.6012,1.6012,1.6011,1.601,1.595,1.595,1.5949,0,0,0,0,0,0,0,0,0,0,0,0,0,1.6179,1.6179,1.6127,1.6127,1.6126,1.6072,1.6072,1.6071,1.6012,1.6011,1.601,1.601,1.5951,1.595,1.5949,0,0,0,0,0,0,0,0,0,0,0,0,0,1.6144,1.6178,1.6127,1.609,1.6087,1.6073,1.6072,1.6071,1.6013,1.6011,1.601,1.6009,1.5951,1.595,1.5949,1.5966,0,0,1.5945,1.5944,0,0,0,0,0,0,0,0,1.6146,1.6142,1.6097,1.6093,1.6089,1.6048,1.6068,1.6035,1.6013,1.6041,1.601,1.6008,1.5984,1.598,1.5972,1.5963,1.596,1.5945,1.5944,1.5943,1.5943,0,0,0,0,0,0,0,1.6148,1.6144,1.6105,1.6096,1.6091,1.6076,1.6069,1.6062,1.602,1.6038,1.6034,1.6028,1.5981,1.5973,1.597,1.5959,1.5945,1.5944,1.5943,1.5942,1.596,1.5961,0,0,0,0,0,0,1.6157,1.6146,1.6107,1.6104,1.6115,1.6076,1.6069,1.6062,1.602,1.6012,1.6029,1.6026,1.5976,1.5972,1.5968,1.5983,1.5943,1.5942,1.5942,1.5959,1.596,1.5962,0,0,0,0,0,0,1.6158,1.6154,1.6109,1.6124,1.6117,1.6076,1.607,1.6062,1.6054,1.6013,1.6005,1.6029,1.5975,1.597,1.5966,1.598,1.5942,1.5941,1.5957,1.5959,1.5961,1.6015,0,0,0,0,0,0,1.616,1.6155,1.6161,1.6125,1.6117,1.611,1.607,1.6062,1.6052,1.6047,1.6011,1.6003,1.5973,1.5969,1.5965,1.5978,1.594,1.5956,1.5958,1.596,1.6012,1.6018,1.6024,0,0,0,0,0,1.6162,1.6178,1.6162,1.6157,1.6124,1.6111,1.6106,1.6072,1.6054,1.6059,1.6033,1.6004,1.598,1.5969,1.5965,1.5977,1.5955,1.5958,1.596,1.6009,1.6017,1.6024,0,0,0,0,0,0,1.6216,1.6173,1.6154,1.6159,1.6139,1.6101,1.6107,1.6082,1.6066,1.6062,1.602,1.6012,1.6014,1.5996,1.5984,1.5991,1.5963,1.5965,1.6002,1.6009,1.6015,1.6018,1.5939,0,0,0,0,0,1.6229,1.6223,1.6185,1.6193,1.6184,1.6148,1.6141,1.6117,1.6094,1.6085,1.6058,1.6037,1.6024,1.6016,1.6002,1.601,1.6,1.6017,1.6023,1.6028,1.6029,1.603,1.6036,1.597,1.597,1.597,0,0,1.6255,1.623,1.6229,1.6203,1.6185,1.6178,1.6141,1.6136,1.613,1.6084,1.6078,1.6059,1.6032,1.6034,1.6033,1.6019,1.6046,1.6032,1.6036,1.6034,1.6033,1.604,1.6045,1.5972,1.5972,1.5972,0,0,1.6297,1.628,1.6283,1.6267,1.624,1.6216,1.6217,1.6183,1.6168,1.6163,1.6128,1.6121,1.61,1.6082,1.607,1.6107,1.6079,1.6104,1.6135,1.6137,1.6142,1.6146,1.6157,1.6161,1.6106,1.6106,1.6107,0,1.6332,1.6321,1.6288,1.6285,1.6274,1.6235,1.6237,1.6222,1.6192,1.6185,1.617,1.6143,1.6122,1.6118,1.6128,1.612,1.6119,1.6106,1.6144,1.6148,1.6151,1.6161,1.6166,1.6109,1.6109,1.6109,1.6108,0,1.6364,1.6358,1.6364,1.6337,1.6327,1.6327,1.6293,1.6288,1.6265,1.6243,1.6237,1.6211,1.6191,1.6189,1.6167,1.6182,1.6173,1.6152,1.6123,1.6161,1.6169,1.6173,1.6114,1.6113,1.6112,1.6111,0,0,1.6436,1.6392,1.6395,1.6381,1.635,1.6344,1.6342,1.6324,1.6318,1.63,1.6296,1.628,1.626,1.6247,1.6222,1.6224,1.6253,1.6202,1.62,1.6209,1.6265,1.6279,1.6284,1.6236,1.6236,1.6237,1.6266,0,1.6471,1.6465,1.6436,1.6438,1.6431,1.6394,1.6392,1.6373,1.6352,1.6342,1.6319,1.6307,1.6283,1.6274,1.6275,1.6249,1.6262,1.6247,1.6229,1.6229,1.6233,1.6289,1.6303,1.6332,1.6269,1.627,1.627,0,1.6509,1.6494,1.6496,1.6465,1.6461,1.646,1.644,1.6432,1.6408,1.6393,1.6379,1.6352,1.6347,1.6323,1.6314,1.6304,1.6295,1.6282,1.6282,1.6276,1.6249,1.6281,1.6341,1.6344,1.6276,1.6275,1.6275,0,1.6558,1.6538,1.6536,1.6527,1.6491,1.6491,1.6476,1.6452,1.6442,1.6425,1.6418,1.6401,1.639,1.6377,1.6346,1.6332,1.6339,1.6313,1.6324,1.6325,1.6324,1.6324,1.638,1.6325,1.6325,1.6325,1.6325,0,1.6597,1.6599,1.6557,1.6556,1.6557,1.6524,1.6526,1.6507,1.6486,1.6479,1.6448,1.6442,1.6403,1.6392,1.6368,1.6363,1.6359,1.6345,1.6338,1.6346,1.6348,1.6337,1.6333,1.6326,1.6326,1.6325,1.6325,0,1.6649,1.6622,1.6617,1.6585,1.6577,1.6579,1.655,1.6547,1.6526,1.6518,1.6514,1.648,1.6466,1.6435,1.6412,1.6396,1.6396,1.6385,1.6403,1.6398,1.641,1.6408,1.6459,1.6463,1.6408,1.6409,1.6409,0,1.6674,1.6675,1.6643,1.6637,1.6624,1.6615,1.6605,1.6574,1.6565,1.6539,1.6538,1.6523,1.6508,1.6487,1.6459,1.6442,1.6428,1.6447,1.6425,1.6433,1.6425,1.6424,1.6423,1.6451,1.6452,1.6452,1.6453,0,1.6721,1.6708,1.6696,1.668,1.667,1.6655,1.6639,1.6636,1.66,1.6591,1.6578,1.6566,1.6544,1.6528,1.6506,1.6489,1.6464,1.6461,1.6462,1.6468,1.6478,1.647,1.6413,1.6459,1.6458,1.6458,1.6457,1.6457,1.6758,1.6757,1.6734,1.6722,1.6707,1.6693,1.6688,1.6667,1.6655,1.6635,1.6617,1.6605,1.6581,1.655,1.6535,1.6524,1.6511,1.6514,1.6513,1.6514,1.6516,1.6483,1.652,1.652,1.652,1.652,1.6519,0,1.6801,1.6785,1.6775,1.6753,1.6743,1.6724,1.6705,1.6698,1.6687,1.6669,1.6655,1.6639,1.6623,1.6595,1.6577,1.6573,1.6561,1.6569,1.6567,1.6563,1.653,1.6529,1.6579,1.6579,1.6579,1.6579,1.6579,1.6579,1.6821,1.6817,1.6802,1.679,1.6774,1.6762,1.6753,1.6739,1.6724,1.6707,1.6695,1.6678,1.6654,1.6634,1.6619,1.6611,1.6604,1.6615,1.6603,1.6572,1.6566,1.656,1.656,1.6615,1.6615,1.6637,1.6638,1.6638]}]]